When you browse on this site, cookies collect data to enhance your experience and personalize the content and advertising you see.
Visit our Privacy Policy to learn more. By continuing to use the site, you agree to this use of cookies and data.
  • En España
  • Lista de países
  • Para 7 días
  • Temperatura del agua
  • Mapa Satelital
  • El tiempo en el mapa
  • Informadores
  • user-avatar
    Iniciar sesión

    Tiempo cada hora Burajda

    Hoy, 19 Diciembre, Miércoles

    Tiempo Temperatura Precipitaciones Viento Presión Humedad
    00:00 +16°C° 0 mm 5 mps 712 mmHg 49%
    01:00 +15°C° 0 mm 4 mps 712 mmHg 50%
    02:00 +15°C° 0 mm 4 mps 711 mmHg 51%
    03:00 +14°C° 0 mm 4 mps 711 mmHg 52%
    04:00 +14°C° 0 mm 4 mps 711 mmHg 51%
    05:00 +13°C° 0 mm 4 mps 712 mmHg 51%
    06:00 +13°C° 0 mm 4 mps 712 mmHg 51%
    07:00 +13°C° 0 mm 4 mps 712 mmHg 48%
    08:00 +14°C° 0 mm 4 mps 712 mmHg 46%
    09:00 +15°C° 0 mm 4 mps 712 mmHg 45%
    10:00 +17°C° 0 mm 4 mps 712 mmHg 43%
    11:00 +19°C° 0 mm 4 mps 712 mmHg 41%
    12:00 +20°C° 0 mm 4 mps 711 mmHg 39%
    13:00 +21°C° 0 mm 4 mps 711 mmHg 38%
    14:00 +22°C° 0 mm 4 mps 711 mmHg 37%
    15:00 +23°C° 0 mm 4 mps 710 mmHg 37%
    16:00 +23°C° 0 mm 4 mps 710 mmHg 39%
    17:00 +22°C° 0 mm 3 mps 710 mmHg 40%
    18:00 +22°C° 0 mm 3 mps 710 mmHg 42%
    19:00 +21°C° 0 mm 4 mps 710 mmHg 44%
    20:00 +21°C° 0 mm 4 mps 710 mmHg 46%
    21:00 +20°C° 0 mm 5 mps 710 mmHg 48%
    22:00 +20°C° 0 mm 5 mps 710 mmHg 49%
    23:00 +19°C° 0 mm 5 mps 710 mmHg 50%

    Mañana, 20 Diciembre, Jueves

    Tiempo Temperatura Precipitaciones Viento Presión Humedad
    00:00 +19°C° 0 mm 5 mps 709 mmHg 52%
    01:00 +19°C° 0 mm 6 mps 709 mmHg 50%
    02:00 +19°C° 0 mm 6 mps 709 mmHg 49%
    03:00 +19°C° 0 mm 6 mps 709 mmHg 48%
    04:00 +19°C° 0 mm 6 mps 709 mmHg 47%
    05:00 +17°C° 0 mm 6 mps 709 mmHg 46%
    06:00 +17°C° 0 mm 5 mps 709 mmHg 45%
    07:00 +19°C° 0 mm 6 mps 709 mmHg 42%
    08:00 +20°C° 0 mm 6 mps 709 mmHg 38%
    09:00 +21°C° 0 mm 7 mps 710 mmHg 35%
    10:00 +22°C° 0 mm 7 mps 710 mmHg 30%
    11:00 +24°C° 0 mm 7 mps 710 mmHg 26%
    12:00 +27°C° 0 mm 7 mps 710 mmHg 21%
    13:00 +27°C° 0 mm 6 mps 709 mmHg 21%
    14:00 +28°C° 0 mm 6 mps 709 mmHg 20%
    15:00 +28°C° 0 mm 5 mps 708 mmHg 20%
    16:00 +27°C° 0 mm 5 mps 708 mmHg 22%
    17:00 +25°C° 0 mm 5 mps 708 mmHg 24%
    18:00 +23°C° 0 mm 5 mps 708 mmHg 26%
    19:00 +22°C° 0 mm 5 mps 709 mmHg 27%
    20:00 +21°C° 0 mm 6 mps 709 mmHg 27%
    21:00 +20°C° 0 mm 7 mps 710 mmHg 28%
    22:00 +18°C° 0 mm 7 mps 710 mmHg 30%
    23:00 +17°C° 0 mm 6 mps 710 mmHg 32%

    Pasado mañana, 21 Diciembre, Viernes

    Tiempo Temperatura Precipitaciones Viento Presión Humedad
    00:00 +16°C° 0 mm 6 mps 710 mmHg 34%
    01:00 +16°C° 0 mm 5 mps 710 mmHg 36%
    02:00 +15°C° 0 mm 5 mps 710 mmHg 37%
    03:00 +15°C° 0 mm 5 mps 710 mmHg 39%
    04:00 +14°C° 0 mm 4 mps 710 mmHg 40%
    05:00 +14°C° 0 mm 4 mps 710 mmHg 42%
    06:00 +13°C° 0 mm 3 mps 710 mmHg 43%
    07:00 +14°C° 0 mm 4 mps 711 mmHg 42%
    08:00 +14°C° 0 mm 4 mps 711 mmHg 41%
    09:00 +14°C° 0 mm 5 mps 712 mmHg 41%
    10:00 +15°C° 0 mm 4 mps 712 mmHg 38%
    11:00 +17°C° 0 mm 4 mps 712 mmHg 35%
    12:00 +18°C° 0 mm 4 mps 711 mmHg 32%
    13:00 +19°C° 0 mm 4 mps 711 mmHg 31%
    14:00 +19°C° 0 mm 3 mps 710 mmHg 30%
    15:00 +19°C° 0 mm 3 mps 710 mmHg 29%
    16:00 +19°C° 0 mm 3 mps 710 mmHg 30%
    17:00 +18°C° 0 mm 3 mps 710 mmHg 32%
    18:00 +18°C° 0 mm 3 mps 710 mmHg 33%
    19:00 +17°C° 0 mm 3 mps 710 mmHg 35%
    20:00 +17°C° 0 mm 3 mps 711 mmHg 37%
    21:00 +16°C° 0 mm 3 mps 711 mmHg 39%
    22:00 +16°C° 0 mm 3 mps 711 mmHg 40%
    23:00 +14°C° 0 mm 3 mps 711 mmHg 42%

    22 Diciembre, Sábado

    Tiempo Temperatura Precipitaciones Viento Presión Humedad
    00:00 +14°C° 0 mm 3 mps 710 mmHg 44%
    01:00 +13°C° 0 mm 3 mps 710 mmHg 46%
    02:00 +13°C° 0 mm 3 mps 710 mmHg 48%
    03:00 +12°C° 0 mm 3 mps 710 mmHg 49%
    04:00 +12°C° 0 mm 3 mps 710 mmHg 51%
    05:00 +11°C° 0 mm 3 mps 710 mmHg 53%
    06:00 +12°C° 0 mm 2 mps 710 mmHg 55%
    07:00 +13°C° 0 mm 2 mps 711 mmHg 53%
    08:00 +13°C° 0 mm 2 mps 711 mmHg 51%
    09:00 +14°C° 0 mm 2 mps 712 mmHg 49%
    10:00 +15°C° 0 mm 2 mps 712 mmHg 45%
    11:00 +16°C° 0 mm 2 mps 711 mmHg 41%
    12:00 +17°C° 0 mm 2 mps 711 mmHg 38%
    13:00 +17°C° 0 mm 2 mps 711 mmHg 36%
    14:00 +18°C° 0 mm 2 mps 710 mmHg 34%
    15:00 +18°C° 0 mm 2 mps 710 mmHg 32%
    16:00 +18°C° 0 mm 2 mps 710 mmHg 34%
    17:00 +17°C° 0 mm 2 mps 710 mmHg 35%
    18:00 +17°C° 0 mm 2 mps 710 mmHg 37%
    19:00 +16°C° 0 mm 2 mps 711 mmHg 38%
    20:00 +16°C° 0 mm 2 mps 711 mmHg 40%
    21:00 +15°C° 0 mm 2 mps 711 mmHg 41%
    22:00 +15°C° 0 mm 2 mps 711 mmHg 42%
    23:00 +14°C° 0 mm 2 mps 711 mmHg 43%

    23 Diciembre, Domingo

    Tiempo Temperatura Precipitaciones Viento Presión Humedad
    00:00 +14°C° 0 mm 2 mps 710 mmHg 45%
    01:00 +14°C° 0 mm 2 mps 710 mmHg 45%
    02:00 +13°C° 0 mm 2 mps 710 mmHg 46%
    03:00 +13°C° 0 mm 2 mps 710 mmHg 47%
    04:00 +13°C° 0 mm 2 mps 710 mmHg 49%
    05:00 +12°C° 0 mm 2 mps 710 mmHg 50%
    06:00 +12°C° 0 mm 2 mps 710 mmHg 51%
    07:00 +13°C° 0 mm 2 mps 711 mmHg 49%
    08:00 +13°C° 0 mm 2 mps 711 mmHg 47%
    09:00 +14°C° 0 mm 2 mps 712 mmHg 45%
    10:00 +15°C° 0 mm 2 mps 712 mmHg 41%
    11:00 +16°C° 0 mm 2 mps 711 mmHg 38%
    12:00 +17°C° 0 mm 2 mps 711 mmHg 35%
    13:00 +18°C° 0 mm 2 mps 711 mmHg 34%
    14:00 +18°C° 0 mm 2 mps 710 mmHg 32%
    15:00 +19°C° 0 mm 2 mps 710 mmHg 31%
    16:00 +18°C° 0 mm 2 mps 710 mmHg 32%
    17:00 +18°C° 0 mm 2 mps 710 mmHg 34%
    18:00 +17°C° 0 mm 3 mps 710 mmHg 35%
    19:00 +17°C° 0 mm 3 mps 711 mmHg 37%
    20:00 +16°C° 0 mm 3 mps 711 mmHg 38%
    21:00 +15°C° 0 mm 4 mps 711 mmHg 40%
    22:00 +14°C° 0 mm 3 mps 711 mmHg 42%
    23:00 +14°C° 0 mm 3 mps 711 mmHg 43%

    24 Diciembre, Lunes

    Tiempo Temperatura Precipitaciones Viento Presión Humedad
    00:00 +13°C° 0 mm 3 mps 711 mmHg 44%
    01:00 +13°C° 0 mm 3 mps 711 mmHg 45%
    02:00 +13°C° 0 mm 3 mps 710 mmHg 45%
    03:00 +12°C° 0 mm 3 mps 710 mmHg 46%
    04:00 +13°C° 0 mm 2 mps 710 mmHg 46%
    05:00 +13°C° 0 mm 2 mps 710 mmHg 47%
    06:00 +12°C° 0 mm 2 mps 711 mmHg 47%
    07:00 +13°C° 0 mm 2 mps 711 mmHg 44%
    08:00 +13°C° 0 mm 3 mps 712 mmHg 42%
    09:00 +14°C° 0 mm 3 mps 712 mmHg 39%
    10:00 +16°C° 0 mm 3 mps 712 mmHg 36%
    11:00 +17°C° 0 mm 3 mps 711 mmHg 33%
    12:00 +19°C° 0 mm 3 mps 711 mmHg 30%
    13:00 +19°C° 0 mm 3 mps 711 mmHg 29%
    14:00 +20°C° 0 mm 3 mps 710 mmHg 28%
    15:00 +21°C° 0 mm 3 mps 710 mmHg 27%
    16:00 +20°C° 0 mm 3 mps 710 mmHg 29%
    17:00 +19°C° 0 mm 3 mps 710 mmHg 30%
    18:00 +19°C° 0 mm 3 mps 710 mmHg 32%
    19:00 +18°C° 0 mm 4 mps 710 mmHg 33%
    20:00 +17°C° 0 mm 4 mps 711 mmHg 35%
    21:00 +17°C° 0 mm 4 mps 711 mmHg 36%
    22:00 +15°C° 0 mm 4 mps 711 mmHg 37%
    23:00 +14°C° 0 mm 4 mps 710 mmHg 38%
    Mostrar más